User: anonymous   Login
Location: Melbourne
(37.8170°S, 144.9670°E)
Time: 21:04:23
(UTC+10:00)
Language:

Cosmos 962 Rocket - Orbit

View from above orbital plane
View from above orbital plane
View from above satellite
View from above satellite

Ground track
Ground track

The orbit data is extracted from the following two-line orbital elements,

1 10461U 77107B   18174.84595137 +.00000027 +00000-0 +11882-4 0  9990
2 10461 082.9498 097.5018 0033048 185.8677 206.9607 13.76796232041645
Epoch (UTC): 23 June 2018 20:18:10
Eccentricity: 0.0033048
inclination: 82.9498°
perigee height: 951 km
apogee height: 999 km
right ascension of ascending node: 97.5018°
argument of perigee: 185.8677°
revolutions per day: 13.76796232
mean anomaly at epoch: 206.9607°
orbit number at epoch: 4164

The dashed part of the orbit path shows where the satellite is in the earth's shadow,  

DLR